Flag for U.S.A. Weather past 2 weeks in Inverness, Florida, U.S.A.

Now
61 °F

Cool.


Feels Like: 61 °F
Forecast: 48 / 66 °F
Wind: 7 mph from Southwest

Location: The Villages

Current Time: Feb 26, 2015 at 6:19:20 PM

Latest Report: Feb 26, 2015 at 5:55 PM


Visibility: 8 mi

Pressure: 29.85 "Hg

Humidity: 72%

Dew point: 52 °F

Location of InvernessLocation

Historic Weather in Inverness — Graph

°F

Inverness temperature yesterday

Maximum temperature yesterday: 72 °F (at 9:15 PM)
Minimum temperature yesterday: 57 °F (at 12:15 AM)
Average temperature yesterday: 62 °F

Past Weeks' High & Low Weather Summary

 TemperatureHumidityPressure
High82 °F (Feb 22, 4:15 PM)100% (Feb 12, 1:35 AM)30.37 "Hg (Feb 12, 1:35 AM)
Low28 °F (Feb 20, 4:55 AM)15% (Feb 20, 5:15 PM)29.55 "Hg (Feb 26, 2:15 AM)
Average56 °F70%30.02 "Hg
* Reported Feb 11 5:15 PM — Feb 26 5:15 PM, Inverness, Weather by CustomWeather, © 2015

Note: Actual official high and low records may vary slightly from our data, if they occured in-between our weather recording intervals... More about our weather records

Advertising

Inverness weather history for previous 24 hours

 ConditionsComfort  
Time TempWeatherWind HumidityBarometerVisibility
5:15 PM
Thu, Feb 26
64 °FMild.9 mph64%29.83 "Hg10 mi
4:55 PM66 °FMild.7 mph60%29.82 "Hg9 mi
4:15 PM66 °FMild.7 mph60%29.80 "Hg9 mi
3:55 PM66 °FMild.7 mph60%29.80 "Hg10 mi
3:35 PM68 °FMild.7 mph56%29.79 "Hg9 mi
3:15 PM66 °FMild.8 mph60%29.78 "Hg7 mi
2:55 PM66 °FHaze.7 mph60%29.78 "Hg6 mi
2:35 PM66 °FHaze.8 mph60%29.78 "Hg6 mi
2:15 PM64 °FMild.9 mph64%29.78 "Hg10 mi
1:55 PM66 °FMild.7 mph60%29.77 "Hg9 mi
1:35 PM64 °FMild.7 mph64%29.78 "Hg9 mi
1:15 PM66 °FMild.5 mph60%29.78 "Hg9 mi
12:55 PM66 °FMild.6 mph60%29.78 "Hg8 mi
12:35 PM64 °FMild.7 mph64%29.78 "Hg10 mi
12:15 PM64 °FHaze.7 mph68%29.79 "Hg6 mi
11:55 AM64 °FMild.9 mph68%29.79 "Hg7 mi
11:35 AM64 °FMild.10 mph68%29.79 "Hg9 mi
11:15 AM63 °FMild.10 mph73%29.78 "Hg7 mi
10:55 AM63 °FMild.12 mph73%29.79 "Hg8 mi
10:15 AM61 °FCool.12 mph77%29.77 "Hg8 mi
9:55 AM61 °FCool.14 mph77%29.76 "Hg8 mi
9:35 AM61 °FHaze.10 mph83%29.76 "Hg6 mi
9:15 AM61 °FCool.12 mph83%29.74 "Hg8 mi
8:55 AM61 °FCool.14 mph83%29.74 "Hg7 mi
8:35 AM61 °FHaze.12 mph88%29.73 "Hg6 mi
8:15 AM61 °FCool.9 mph88%29.72 "Hg7 mi
7:55 AM61 °FCool.9 mph88%29.71 "Hg8 mi
7:15 AM61 °FFog.10 mph88%29.69 "Hg6 mi
6:55 AM61 °FCool.12 mph88%29.68 "Hg9 mi
6:35 AM63 °FHaze.12 mph83%29.67 "Hg6 mi
6:15 AM63 °FMild.8 mph88%29.66 "Hg8 mi
5:55 AM63 °FMild.10 mph88%29.66 "Hg8 mi
5:35 AM63 °FMild.9 mph88%29.65 "Hg7 mi
5:15 AM63 °FMild.8 mph94%29.64 "Hg7 mi
4:55 AM63 °FMild.10 mph100%29.63 "Hg7 mi
4:35 AM63 °FMild.8 mph100%29.62 "Hg7 mi
4:15 AM64 °FFog.10 mph94%29.62 "Hg6 mi
3:55 AM64 °FFog.12 mph100%29.61 "Hg2 mi
3:35 AM64 °FFog.15 mph100%29.60 "Hg1 mi
3:15 AM73 °FHaze.21 mph83%29.55 "Hg5 mi
2:55 AM73 °FMild.22 mph83%29.55 "Hg7 mi
2:15 AM73 °FHaze.22 mph83%29.55 "Hg5 mi
1:55 AM73 °FHaze.22 mph83%29.56 "Hg4 mi
1:15 AM72 °FMild.18 mph83%29.58 "HgN/A
12:55 AM72 °FHaze.18 mph83%29.58 "Hg6 mi
12:15 AM70 °FMild.15 mph88%29.59 "Hg8 mi
11:55 PM
Wed, Feb 25
70 °FHaze.15 mph83%29.59 "Hg6 mi
10:55 PM70 °FMild.20 mph83%29.59 "Hg7 mi
10:15 PM70 °FHaze.18 mph83%29.61 "Hg6 mi
9:55 PM70 °FHaze.15 mph88%29.60 "Hg6 mi
9:35 PM70 °FHaze.13 mph88%29.60 "Hg6 mi
9:15 PM72 °FHaze.16 mph78%29.60 "Hg5 mi
8:55 PM70 °FHaze.12 mph83%29.61 "Hg6 mi
8:35 PM70 °FMild.10 mph83%29.62 "Hg9 mi
8:15 PM68 °FFog.6 mph94%29.62 "Hg5 mi
7:55 PM66 °FFog.5 mph100%29.62 "Hg4 mi
7:35 PM68 °FFog.5 mph94%29.63 "Hg4 mi
7:15 PM68 °FFog.6 mph94%29.64 "Hg6 mi
6:55 PM66 °FFog.5 mph94%29.64 "Hg4 mi
6:35 PM68 °FFog.5 mph88%29.64 "Hg6 mi
6:15 PM68 °FFog.5 mph88%29.65 "Hg5 mi
Weather by CustomWeather, © 2015

See weather overviewHow to use our weather pages